Location: Maiden
(35.5760°N, 81.2120°W)
Time: 02:36:23
(UTC-04:00)

A-11 Canister half - Pass Details

Date: 04 August 2020
Orbit: 1527 x 1682 km, 47.3° (Epoch: 25 September)

Event Time Altitude Azimuth Distance (km) Brightness Sun altitude
Rises 12:44:33 0° 202° (SSW) 4,885 11.8 68.7°
Reaches altitude 10° 12:47:57 10° 195° (SSW) 3,913 11.5 69.1°
Maximum altitude 12:57:01 39° 131° (SE) 2,329 11.1 69.9°
Drops below altitude 10° 13:06:07 10° 67° (ENE) 3,937 11.3 70.6°
Sets 13:09:31 0° 60° (ENE) 4,918 11.6 70.8°
